Content
SEND FEEDBACK

Daily
Averages
Monthly
Summary
Canada

AMHERST, NOVA SCOTIA


Home > North America > Canada > Nova Scotia
Elevation: 66 feet     Latitude: 45 46N     Longitude: 064 15W

WEATHER
 
SELECT A DAY
Number of Records: 97,357;   Date Range: 6/19/04 - 9/18/14
 
SHARE

PRINT THIS DATA

[ ← Previous Day ]
WEATHER ALMANAC - APRIL 24, 2013
[ Next Day → ]
[ °C ]   °F
Weather ElementAverageHighLow
Temperature49.4 °F59.4 °F (4:00 pm)39.4 °F (5:00 am)
Dewpoint47 °F55.4 °F (4:00 pm)38.1 °F (5:00 am)
Humidity91 %96 % (8:00 am)80 % (9:00 pm)
Barometer30.10 in30.38 in (1:00 am)29.88 in (9:00 pm)
Wind Speed10.1 mph21.9 mph (9:00 pm)
Wind Gust33.4 mph (9:00 pm)
Weather ElementAverage
Wind DirectionESE (125.6 °)

Weather ElementTotal
Precipitation0.29 in
Heating Degree Days15.6 (Base 65)
Averaged from 25 records on April 24, 2013
WEATHER CONDITIONS BREAKOUT
WIND DIRECTION BREAKOUT
WEATHER BY HOUR - APRIL 24, 2013
[ °C ]   °F
Local TimeTemperatureDewpointHumidityBarometerVisibilityWind DirectionWind SpeedGust SpeedPrecipitationEventsConditions
1:00 AM41.0 °F39.0 °F93 %30.38 inNE (40°)3.5 mph0.07 in
2:00 AM41.0 °F39.6 °F95 %30.34 inNNE (30°)5.8 mph0.06 in
3:00 AM40.0 °F39.0 °F94 %30.29 inNNE (30°)6.9 mph
3:00 AM40.3 °F38.8 °F95 %30.29 inNNE (30°)6.9 mph0.10 in
4:00 AM39.9 °F38.7 °F95 %30.26 inNE (40°)4.6 mph0.02 in
5:00 AM39.4 °F38.1 °F95 %30.23 inNE (40°)5.8 mph0.01 in
6:00 AM40.3 °F39.0 °F95 %30.21 inNE (40°)3.5 mph0.01 in
7:00 AM40.8 °F39.6 °F95 %30.19 inWNW (290°)2.3 mph
8:00 AM42.4 °F41.4 °F96 %30.18 inNNW (330°)2.3 mph0.02 in
9:00 AM44.0 °F43.0 °F96 %30.17 inNorth (10°)1.2 mph
9:00 AM44.2 °F43.2 °F96 %30.17 inNorth (10°)1.2 mph
10:00 AM48.7 °F47.7 °F96 %30.16 inWest (270°)1.2 mph
11:00 AM53.4 °F51.3 °F92 %30.14 inSE (140°)5.8 mph
12:00 PM55.9 °F52.9 °F89 %30.11 inSE (140°)11.5 mph17.3 mph
2:00 PM57.6 °F54.0 °F88 %30.05 inSE (140°)15.0 mph20.7 mph
3:00 PM58.0 °F54.0 °F84 %30.01 inSE (140°)16.1 mph
3:00 PM57.9 °F54.5 °F88 %30.01 inSE (140°)16.1 mph24.2 mph
4:00 PM59.4 °F55.4 °F87 %29.98 inSSE (150°)15.0 mph23.0 mph
5:00 PM58.3 °F55.2 °F90 %29.95 inSSE (150°)13.8 mph21.9 mph
6:00 PM58.3 °F55.0 °F89 %29.91 inSSE (150°)17.3 mph26.5 mph
7:00 PM58.1 °F54.9 °F89 %29.91 inSouth (170°)17.3 mph23.0 mph
8:00 PM55.8 °F52.0 °F87 %29.90 inSouth (170°)18.4 mph25.3 mph
9:00 PM54.0 °F50.0 °F80 %29.88 inSSE (160°)21.9 mph
9:00 PM54.1 °F49.6 °F85 %29.88 inSSE (160°)21.9 mph33.4 mph
10:00 PM52.9 °F48.4 °F85 %29.89 inSouth (170°)17.3 mph24.2 mph
Hourly data recorded from CXNP, located miles away from Amherst, Nova Scotia







STORIES FROM OUR PARTNERS